Location: Westminster
(33.3626°N, 96.4619°W)
Time: 19:42:51
(UTC+00:00)

Nadezhda 4 Rocket - Pass Details

Date: 03 December 2021
Orbit: 949 x 992 km, 82.9° (Epoch: 26 January)

Event Time Altitude Azimuth Distance (km) Brightness Sun altitude
Rises 12:11:44 0° 181° (S) 3,611 7.2 -12.8°
Reaches altitude 10° 12:14:12 10° 181° (S) 2,673 6.5 -12.3°
Maximum altitude 12:20:19 82° 95° (E) 974 4.1 -11.1°
Drops below altitude 10° 12:26:32 10° 8° (N) 2,715 6.2 -9.9°
Sets 12:29:03 0° 8° (N) 3,671 6.9 -9.4°
